Weather History for Worthington, MN

Change the Weather History Date:

Saturday, January 5, 2013

  Actual Average Record
Temperature  
Mean Temperature 18 °F -  
Max Temperature 24 °F 22 °F 53 °F (2012)
Min Temperature 12 °F 8 °F -24 °F (1988)
Degree Days  
Heating Degree Days 47    
Moisture  
Dew Point 9 °F    
Average Humidity 71    
Maximum Humidity 79    
Minimum Humidity 62    
Precipitation  
Precipitation 0.00 in - - ()
Sea Level Pressure  
Sea Level Pressure 29.96 in    
Wind  
Wind Speed 12 mph (West)    
Max Wind Speed 22 mph    
Max Gust Speed 25 mph    
Visibility 10 miles    
Events      
Averages and records for this station are not official NWS values.
T = Trace of Precipitation, MM = Missing Value Source: NWS Daily Summary

Daily Weather History Graph

Daily Weather History Graph

Search for Another Location

Airport:

Trip Planner

Search our weather history database for the weather conditions in past years. The results will help you decide how hot, cold, wet, or windy it might be!

Date:

Astronomy

Jan. 05, 2013 Rise Set
Actual Time 7:55 AM CST 5:00 PM CST
Civil Twilight 7:23 AM CST 5:32 PM CST
Nautical Twilight 6:47 AM CST 6:08 PM CST
Astronomical Twilight 6:12 AM CST 6:43 PM CST
Moon 12:56 AM CST (1/5) 11:56 AM CST (1/5)
Length of Visible Light 10h 09m
Length of Day
9h 04m
Last Quarter, 44% of the Moon is Illuminated
Jan 5
Last Quarter
Jan 11
New
Jan 18
First Quarter
Jan 26
Full
Feb 3
Last Quarter

Hourly Weather History & Observations

Time (CST) Temp. Windchill Dew Point Humidity Pressure Visibility Wind Dir Wind Speed Gust Speed Precip Events Conditions
12:15 AM 17.6 °F 6.4 °F 8.6 °F 68% 30.04 in 10.0 mi SW 9.2 mph - N/A   Clear
12:35 AM 15.8 °F 6.1 °F 8.6 °F 73% 30.03 in 10.0 mi SW 6.9 mph - N/A   Clear
1:15 AM 14.0 °F 5.1 °F 6.8 °F 73% 30.01 in 10.0 mi SW 5.8 mph - N/A   Clear
1:35 AM 14.0 °F 2.9 °F 8.6 °F 79% 30.00 in 10.0 mi SSW 8.1 mph - N/A   Clear
1:55 AM 15.8 °F 3.4 °F 8.6 °F 73% 30.00 in 10.0 mi SSW 10.4 mph - N/A   Clear
2:15 AM 15.8 °F 3.4 °F 8.6 °F 73% 29.99 in 10.0 mi SSW 10.4 mph - N/A   Clear
2:35 AM 15.8 °F 2.7 °F 6.8 °F 68% 29.98 in 10.0 mi SSW 11.5 mph - N/A   Clear
2:55 AM 15.8 °F 2.7 °F 8.6 °F 73% 29.97 in 10.0 mi SSW 11.5 mph - N/A   Clear
3:15 AM 15.8 °F 1.4 °F 8.6 °F 73% 29.96 in 10.0 mi SSW 13.8 mph - N/A   Clear
3:35 AM 15.8 °F 5.1 °F 8.6 °F 73% 29.97 in 10.0 mi SW 8.1 mph - N/A   Clear
3:55 AM 15.8 °F 6.1 °F 8.6 °F 73% 29.97 in 10.0 mi WSW 6.9 mph - N/A   Clear
4:15 AM 15.8 °F 4.2 °F 8.6 °F 73% 29.96 in 10.0 mi SSW 9.2 mph - N/A   Clear
4:35 AM 15.8 °F 2.1 °F 6.8 °F 68% 29.96 in 10.0 mi SSW 12.7 mph - N/A   Clear
4:55 AM 15.8 °F 4.2 °F 6.8 °F 68% 29.95 in 10.0 mi SW 9.2 mph - N/A   Clear
5:15 AM 14.0 °F 1.2 °F 6.8 °F 73% 29.95 in 10.0 mi SW 10.4 mph - N/A   Clear
5:35 AM 14.0 °F 0.5 °F 6.8 °F 73% 29.94 in 10.0 mi SSW 11.5 mph - N/A   Clear
5:55 AM 14.0 °F 1.2 °F 6.8 °F 73% 29.94 in 10.0 mi SW 10.4 mph - N/A   Clear
6:15 AM 14.0 °F -1.4 °F 6.8 °F 73% 29.93 in 10.0 mi SSW 15.0 mph - N/A   Clear
6:35 AM 14.0 °F 0.5 °F 6.8 °F 73% 29.93 in 10.0 mi SSW 11.5 mph - N/A   Clear
6:55 AM 12.2 °F -1.8 °F 6.8 °F 79% 29.93 in 10.0 mi SW 11.5 mph - N/A   Clear
7:15 AM 15.8 °F 2.7 °F 6.8 °F 68% 29.93 in 10.0 mi SW 11.5 mph - N/A   Clear
7:35 AM 14.0 °F 0.5 °F 5.0 °F 67% 29.93 in 10.0 mi SW 11.5 mph - N/A   Clear
7:55 AM 12.2 °F -2.5 °F 6.8 °F 79% 29.92 in 10.0 mi SW 12.7 mph - N/A   Clear
8:15 AM 12.2 °F -2.5 °F 3.2 °F 67% 29.93 in 10.0 mi SW 12.7 mph - N/A   Clear
8:35 AM 12.2 °F -1.8 °F 6.8 °F 79% 29.93 in 10.0 mi SW 11.5 mph - N/A   Clear
8:55 AM 12.2 °F -1.8 °F 6.8 °F 79% 29.92 in 10.0 mi SW 11.5 mph - N/A   Clear
9:15 AM 14.0 °F 1.2 °F 6.8 °F 73% 29.92 in 10.0 mi SW 10.4 mph - N/A   Clear
9:55 AM 15.8 °F 1.4 °F 6.8 °F 68% 29.92 in 10.0 mi WSW 13.8 mph - N/A   Clear
10:15 AM 15.8 °F 2.1 °F 8.6 °F 73% 29.92 in 10.0 mi WSW 12.7 mph - N/A   Clear
10:55 AM 19.4 °F 6.0 °F 10.4 °F 68% 29.90 in 9.0 mi WSW 13.8 mph - N/A   Clear
11:15 AM 17.6 °F 3.7 °F 8.6 °F 68% 29.91 in 8.0 mi West 13.8 mph 18.4 mph N/A   Clear
11:55 AM 19.4 °F 6.6 °F 10.4 °F 68% 29.90 in 10.0 mi West 12.7 mph - N/A   Clear
12:15 PM 19.4 °F 6.0 °F 10.4 °F 68% 29.88 in 10.0 mi West 13.8 mph - N/A   Clear
12:35 PM 21.2 °F 10.9 °F 12.2 °F 68% 29.88 in 10.0 mi West 9.2 mph - N/A   Clear
12:55 PM 23.0 °F 12.4 °F 12.2 °F 63% 29.87 in 10.0 mi NW 10.4 mph - N/A   Clear
1:15 PM 23.0 °F 10.6 °F 12.2 °F 63% 29.87 in 10.0 mi West 13.8 mph - N/A   Clear
1:35 PM 23.0 °F 11.1 °F 12.2 °F 63% 29.87 in 10.0 mi West 12.7 mph - N/A   Clear
1:55 PM 23.0 °F 11.1 °F 14.0 °F 68% 29.87 in 10.0 mi WNW 12.7 mph - N/A   Clear
2:15 PM 24.8 °F 14.6 °F 15.8 °F 69% 29.87 in 10.0 mi West 10.4 mph - N/A   Clear
2:35 PM 24.8 °F 11.9 °F 15.8 °F 69% 29.88 in 10.0 mi WNW 16.1 mph - N/A   Clear
2:55 PM 24.8 °F 11.5 °F 15.8 °F 69% 29.88 in 10.0 mi WNW 17.3 mph - N/A   Clear
3:15 PM 24.8 °F 11.9 °F 15.8 °F 69% 29.89 in 10.0 mi WNW 16.1 mph - N/A   Clear
3:35 PM 24.8 °F 11.1 °F 15.8 °F 69% 29.90 in 10.0 mi WNW 18.4 mph - N/A   Clear
3:55 PM 23.0 °F 7.6 °F 14.0 °F 68% 29.90 in 10.0 mi WNW 21.9 mph - N/A   Clear
4:15 PM 21.2 °F 7.8 °F 14.0 °F 74% 29.92 in 10.0 mi WNW 15.0 mph - N/A   Clear
4:55 PM 19.4 °F 4.5 °F 12.2 °F 74% 29.93 in 10.0 mi WNW 17.3 mph - N/A   Mostly Cloudy
5:15 PM 19.4 °F 4.5 °F 12.2 °F 74% 29.93 in 10.0 mi WNW 17.3 mph - N/A   Mostly Cloudy
5:35 PM 21.2 °F 6.8 °F 12.2 °F 68% 29.95 in 10.0 mi WNW 17.3 mph - N/A   Mostly Cloudy
5:55 PM 21.2 °F 6.8 °F 12.2 °F 68% 29.95 in 10.0 mi NW 17.3 mph - N/A   Overcast
6:15 PM 21.2 °F 6.0 °F 14.0 °F 74% 29.97 in 10.0 mi NW 19.6 mph - N/A   Overcast
6:35 PM 21.2 °F 7.3 °F 14.0 °F 74% 29.98 in 10.0 mi NW 16.1 mph - N/A   Overcast
6:55 PM 21.2 °F 5.6 °F 14.0 °F 74% 29.98 in 10.0 mi NW 20.7 mph - N/A   Overcast
7:15 PM 21.2 °F 6.0 °F 12.2 °F 68% 29.99 in 10.0 mi NNW 19.6 mph - N/A   Overcast
7:55 PM 19.4 °F 3.6 °F 10.4 °F 68% 30.01 in 10.0 mi NNW 19.6 mph - N/A   Overcast
8:15 PM 17.6 °F 1.7 °F 10.4 °F 73% 30.02 in 10.0 mi NW 18.4 mph - N/A   Overcast
8:55 PM 15.8 °F -1.1 °F 8.6 °F 73% 30.03 in 5.0 mi NW 19.6 mph 25.3 mph N/A   Overcast
9:15 PM 15.8 °F -0.6 °F 8.6 °F 73% 30.05 in 6.0 mi NW 18.4 mph - N/A   Overcast
9:35 PM 15.8 °F 0.3 °F 8.6 °F 73% 30.05 in 8.0 mi NW 16.1 mph - N/A   Overcast
9:55 PM 15.8 °F -1.1 °F 8.6 °F 73% 30.06 in 9.0 mi NW 19.6 mph - N/A   Mostly Cloudy
10:15 PM 15.8 °F 0.3 °F 6.8 °F 68% 30.07 in 10.0 mi NW 16.1 mph - N/A   Clear
10:35 PM 14.0 °F -2.0 °F 5.0 °F 67% 30.08 in 10.0 mi NW 16.1 mph - N/A   Partly Cloudy
10:55 PM 14.0 °F -3.4 °F 5.0 °F 67% 30.08 in 10.0 mi NW 19.6 mph - N/A   Clear
11:15 PM 14.0 °F -2.0 °F 5.0 °F 67% 30.08 in 10.0 mi NW 16.1 mph - N/A   Clear
11:35 PM 14.0 °F -0.2 °F 3.2 °F 62% 30.08 in 10.0 mi NW 12.7 mph - N/A   Clear
11:55 PM 12.2 °F -3.1 °F 3.2 °F 67% 30.09 in 10.0 mi NW 13.8 mph - N/A   Clear